Location: Unspecified
(17.6330°N, 0.0000°E)
Time: 12:05:35
(UTC+00:00)

A-11 Canister half - Pass Details

Date: 18 June 2019
Orbit: 1514 x 1685 km, 47.2° (Epoch: 22 July)

Event Time Altitude Azimuth Distance (km) Brightness Sun altitude
Rises 21:26:28 0° 288° (WNW) 4,653 12.3 -34.2°
Reaches altitude 10° 21:31:07 10° 268° (W) 3,667 11.4 -35.0°
Maximum altitude 21:36:06 16° 234° (SW) 3,229 10.7 -35.8°
Enters shadow 21:38:04 15° 219° (SW) 3,306 10.6 -36.1°
Drops below altitude 10° 21:41:09 10° 200° (SSW) 3,686 - -36.6°
Sets 21:45:54 0° 180° (S) 4,690 - -37.3°
